This is the latest recevied weather packets stored in our database for station/object W2EH. If no packets are shown the sender has not sent any weather packets the latest 10 day(s).
| Time | Temp. | Humidity | Pressure | Rain* | Wind** | Luminosity | Snow |
|---|---|---|---|---|---|---|---|
| 1777749443 | 22.78° C | 43% | 1020.2 hPa | 0 mm | - | 934 W/m² | - |
| 1777749141 | 22.78° C | 46% | 1020.1 hPa | 0 mm | - | 938 W/m² | - |
| 1777748838 | 22.78° C | 43% | 1020 hPa | 0 mm | - | 940 W/m² | - |
| 1777748536 | 22.78° C | 45% | 1020.2 hPa | 0 mm | - | 944 W/m² | - |
| 1777748235 | 22.78° C | 47% | 1020.2 hPa | 0 mm | - | 941 W/m² | - |
| 1777747932 | 22.22° C | 49% | 1020.3 hPa | 0 mm | - | 941 W/m² | - |
| 1777747628 | 22.78° C | 46% | 1020.2 hPa | 0 mm | - | 952 W/m² | - |
| 1777747324 | 22.78° C | 44% | 1020.4 hPa | 0 mm | - | 955 W/m² | - |
| 1777747021 | 22.22° C | 48% | 1020.3 hPa | 0 mm | - | 869 W/m² | - |
| 1777746717 | 22.22° C | 47% | 1020.6 hPa | 0 mm | - | 836 W/m² | - |
| 1777746412 | 22.22° C | 46% | 1020.4 hPa | 0 mm | - | 796 W/m² | - |
| 1777746108 | 22.22° C | 46% | 1020.5 hPa | 0 mm | - | 804 W/m² | - |
| 1777745806 | 22.22° C | 52% | 1020.8 hPa | 0 mm | - | 792 W/m² | - |
| 1777745504 | 21.67° C | 54% | 1020.8 hPa | 0 mm | - | 779 W/m² | - |
| 1777745201 | 21.67° C | 53% | 1021.1 hPa | 0 mm | - | 765 W/m² | - |
| 1777744898 | 21.67° C | 55% | 1021.1 hPa | 0 mm | - | 762 W/m² | - |
| 1777744597 | 21.11° C | 54% | 1021.4 hPa | 0 mm | - | 758 W/m² | - |
| 1777744293 | 21.11° C | 55% | 1021.4 hPa | 0 mm | - | 755 W/m² | - |
| 1777743990 | 20.56° C | 57% | 1021.5 hPa | 0 mm | - | 746 W/m² | - |
| 1777743686 | 20.56° C | 56% | 1021.4 hPa | 0 mm | - | 746 W/m² | - |
| 1777743384 | 20.56° C | 54% | 1021.6 hPa | 0 mm | - | 119 W/m² | - |
| 1777743082 | 20.56° C | 57% | 1021.5 hPa | 0 mm | - | 785 W/m² | - |
| 1777742779 | 20.56° C | 59% | 1021.8 hPa | 0 mm | - | 874 W/m² | - |
| 1777742476 | 20.56° C | 58% | 1021.7 hPa | 0 mm | - | 766 W/m² | - |
| 1777742171 | 20° C | 56% | 1021.7 hPa | 0 mm | - | 94 W/m² | - |
* Rain latest hour (hover to see other rain measurements)
** Current wind speed in m/s (hover to see current wind gust speed)